| time (UTC) | temp F | wind direction | speed knots | gust knots | rain 1hr in | rain 24hr in | rain mn in | humidity % | barometer mb |
| 20260506035545 | 45 | 185 | 4.3 | 11.3 | 0.02 | 0.03 | 0.03 | 80 | 1013.8 |
| 20260506035044 | 46 | 185 | 7.8 | 13.0 | 0.02 | 0.03 | 0.03 | 79 | 1013.7 |
| 20260506034544 | 46 | 185 | 8.7 | 14.8 | 0.01 | 0.02 | 0.02 | 77 | 1013.6 |
| 20260506034043 | 46 | 185 | 11.3 | 14.8 | 0.00 | 0.01 | 0.01 | 75 | 1013.5 |
| 20260506033542 | 47 | 185 | 9.6 | 13.9 | 0.00 | 0.01 | 0.01 | 75 | 1013.4 |
| 20260506033042 | 47 | 185 | 7.0 | 13.0 | 0.00 | 0.01 | 0.01 | 75 | 1012.8 |
| 20260506032542 | 48 | 185 | 7.8 | 13.9 | 0.00 | 0.01 | 0.01 | 73 | 1013.1 |
| 20260506032041 | 48 | 185 | 8.7 | 13.9 | 0.00 | 0.01 | 0.01 | 69 | 1013.2 |
| 20260506031543 | 48 | 185 | 10.4 | 13.9 | 0.00 | 0.01 | 0.01 | 68 | 1012.9 |
| 20260506031039 | 48 | 185 | 8.7 | 14.8 | 0.00 | 0.01 | 0.01 | 68 | 1012.6 |
| 20260506030542 | 48 | 185 | 7.0 | 14.8 | 0.00 | 0.01 | 0.01 | 68 | 1012.5 |
| 20260506030039 | 48 | 185 | 7.8 | 11.3 | 0.00 | 0.01 | 0.01 | 69 | 1012.3 |
| 20260506025536 | 47 | 185 | 7.0 | 11.3 | 0.00 | 0.01 | 0.01 | 71 | 1012.3 |
| 20260506025035 | 46 | 185 | 4.3 | 6.1 | 0.00 | 0.01 | 0.01 | 73 | 1012.2 |
| 20260506024537 | 47 | 185 | 0.0 | 0.0 | 0.00 | 0.01 | 0.01 | 70 | 1011.7 |
| 20260506024033 | 48 | 185 | 0.0 | 0.0 | 0.00 | 0.01 | 0.01 | 69 | 1011.4 |
| 20260506023532 | 48 | 185 | 0.0 | 1.7 | 0.00 | 0.01 | 0.01 | 68 | 1011.2 |
| 20260506023049 | 49 | 185 | 0.0 | 4.3 | 0.00 | 0.01 | 0.01 | 67 | 1011.1 |
| 20260506022530 | 49 | 185 | 0.9 | 5.2 | 0.00 | 0.01 | 0.01 | 67 | 1011.1 |
| 20260506022027 | 50 | 185 | 2.6 | 5.2 | 0.00 | 0.01 | 0.01 | 65 | 1011.0 |
| 20260506021538 | 50 | 185 | 2.6 | 5.2 | 0.00 | 0.01 | 0.01 | 64 | 1010.9 |
| 20260506021025 | 51 | 185 | 3.5 | 8.7 | 0.00 | 0.01 | 0.01 | 62 | 1010.7 |
| 20260506020525 | 52 | 185 | 3.5 | 10.4 | 0.00 | 0.01 | 0.01 | 61 | 1010.6 |
| 20260506020027 | 51 | 185 | 2.6 | 11.3 | 0.00 | 0.01 | 0.01 | 62 | 1010.4 |
| 20260506015528 | 51 | 185 | 7.0 | 11.3 | 0.00 | 0.01 | 0.01 | 68 | 1010.4 |
| 20260506015026 | 52 | 185 | 3.5 | 14.8 | 0.00 | 0.01 | 0.01 | 60 | 1010.5 |
| 20260506014523 | 53 | 185 | 9.6 | 14.8 | 0.00 | 0.01 | 0.01 | 59 | 1010.9 |
| 20260506014023 | 54 | 185 | 9.6 | 13.9 | 0.00 | 0.01 | 0.01 | 54 | 1010.5 |
| 20260506013523 | 54 | 185 | 8.7 | 13.0 | 0.00 | 0.01 | 0.01 | 52 | 1010.1 |
| 20260506013030 | 54 | 185 | 5.2 | 8.7 | 0.00 | 0.01 | 0.01 | 53 | 1010.1 |
| 20260506012523 | 54 | 185 | 4.3 | 7.8 | 0.00 | 0.01 | 0.01 | 52 | 1009.9 |
| 20260506012023 | 54 | 185 | 3.5 | 7.8 | 0.00 | 0.01 | 0.01 | 51 | 1010.1 |
| 20260506011524 | 54 | 185 | 2.6 | 7.0 | 0.00 | 0.01 | 0.01 | 51 | 1010.1 |
| 20260506011022 | 55 | 185 | 2.6 | 7.0 | 0.00 | 0.01 | 0.01 | 50 | 1010.0 |
| 20260506010522 | 55 | 185 | 4.3 | 7.0 | 0.00 | 0.01 | 0.01 | 50 | 1009.8 |
| 20260506010021 | 55 | 185 | 3.5 | 10.4 | 0.00 | 0.01 | 0.01 | 49 | 1009.7 |
| 20260506005522 | 56 | 185 | 5.2 | 11.3 | 0.00 | 0.01 | 0.01 | 48 | 1009.6 |
| 20260506005025 | 57 | 185 | 7.0 | 13.0 | 0.00 | 0.01 | 0.01 | 47 | 1009.4 |
| 20260506004526 | 57 | 185 | 7.8 | 13.0 | 0.00 | 0.01 | 0.01 | 46 | 1009.3 |
| 20260506004021 | 58 | 185 | 8.7 | 15.6 | 0.00 | 0.01 | 0.01 | 45 | 1009.0 |
| 20260506003521 | 58 | 185 | 8.7 | 15.6 | 0.00 | 0.01 | 0.01 | 44 | 1009.0 |
| 20260506003021 | 59 | 185 | 5.2 | 10.4 | 0.00 | 0.01 | 0.01 | 43 | 1009.1 |
| 20260506002520 | 60 | 185 | 5.2 | 11.3 | 0.00 | 0.01 | 0.01 | 43 | 1009.1 |
| 20260506002024 | 61 | 185 | 5.2 | 11.3 | 0.00 | 0.01 | 0.01 | 42 | 1009.1 |
| 20260506001520 | 61 | 185 | 3.5 | 14.8 | 0.00 | 0.01 | 0.01 | 43 | 1009.1 |
| 20260506001020 | 60 | 185 | 7.8 | 14.8 | 0.00 | 0.01 | 0.01 | 42 | 1009.2 |
| 20260506000520 | 61 | 185 | 4.3 | 13.0 | 0.00 | 0.01 | 0.01 | 43 | 1009.2 |
| 20260506000023 | 61 | 185 | 6.1 | 13.0 | 0.00 | 0.01 | 0.01 | 42 | 1009.3 |
| 20260505235519 | 61 | 185 | 4.3 | 12.2 | 0.00 | 0.01 | 0.01 | 43 | 1009.1 |
| 20260505235019 | 61 | 185 | 5.2 | 13.9 | 0.00 | 0.01 | 0.01 | 43 | 1009.3 |
| 20260505234519 | 61 | 185 | 6.1 | 13.9 | 0.00 | 0.01 | 0.01 | 44 | 1009.3 |
| 20260505234019 | 60 | 185 | 4.3 | 11.3 | 0.00 | 0.01 | 0.01 | 45 | 1009.4 |
| 20260505233520 | 60 | 185 | 6.1 | 11.3 | 0.00 | 0.01 | 0.01 | 46 | 1009.4 |
| 20260505233018 | 59 | 185 | 4.3 | 9.6 | 0.00 | 0.01 | 0.01 | 48 | 1009.3 |
| 20260505232518 | 60 | 185 | 6.1 | 11.3 | 0.00 | 0.01 | 0.01 | 47 | 1009.3 |
| 20260505232021 | 60 | 185 | 3.5 | 11.3 | 0.00 | 0.01 | 0.01 | 48 | 1009.3 |
| 20260505231533 | 59 | 185 | 1.7 | 7.0 | 0.00 | 0.01 | 0.01 | 49 | 1009.3 |
| 20260505231021 | 59 | 185 | 1.7 | 7.8 | 0.00 | 0.01 | 0.01 | 49 | 1009.4 |
| 20260505230516 | 59 | 185 | 3.5 | 9.6 | 0.00 | 0.01 | 0.01 | 49 | 1009.4 |
| 20260505230023 | 59 | 185 | 2.6 | 13.9 | 0.00 | 0.01 | 0.01 | 49 | 1009.5 |
| 20260505225516 | 59 | 185 | 5.2 | 18.2 | 0.00 | 0.01 | 0.01 | 49 | 1009.4 |
| 20260505225016 | 59 | 185 | 7.8 | 18.2 | 0.00 | 0.01 | 0.01 | 51 | 1009.5 |
| 20260505224516 | 60 | 185 | 7.0 | 15.6 | 0.00 | 0.01 | 0.01 | 49 | 1009.4 |
| 20260505224016 | 60 | 185 | 7.0 | 20.0 | 0.00 | 0.01 | 0.01 | 47 | 1009.7 |
| 20260505223515 | 60 | 185 | 7.0 | 20.0 | 0.00 | 0.01 | 0.01 | 48 | 1009.6 |
| 20260505223015 | 60 | 185 | 5.2 | 13.9 | 0.00 | 0.01 | 0.01 | 45 | 1009.6 |
| 20260505222517 | 61 | 185 | 6.1 | 18.2 | 0.00 | 0.01 | 0.01 | 44 | 1009.5 |
| 20260505222018 | 62 | 185 | 9.6 | 18.2 | 0.00 | 0.01 | 0.01 | 45 | 1009.4 |
| 20260505221515 | 61 | 185 | 6.1 | 16.5 | 0.00 | 0.01 | 0.01 | 44 | 1009.4 |
| 20260505221015 | 60 | 185 | 7.8 | 16.5 | 0.00 | 0.01 | 0.01 | 47 | 1009.3 |
| 20260505220517 | 60 | 185 | 9.6 | 15.6 | 0.00 | 0.01 | 0.01 | 45 | 1009.3 |
| 20260505220017 | 61 | 185 | 9.6 | 15.6 | 0.00 | 0.01 | 0.01 | 47 | 1009.1 |
| 20260505215515 | 61 | 185 | 7.0 | 13.9 | 0.00 | 0.02 | 0.01 | 48 | 1009.2 |
| 20260505215014 | 60 | 185 | 6.1 | 18.2 | 0.00 | 0.02 | 0.01 | 50 | 1009.2 |
| 20260505214514 | 59 | 185 | 7.8 | 18.2 | 0.00 | 0.02 | 0.01 | 50 | 1009.1 |
| 20260505214018 | 59 | 185 | 7.8 | 15.6 | 0.00 | 0.02 | 0.01 | 51 | 1009.3 |
| 20260505213512 | 59 | 185 | 7.0 | 14.8 | 0.00 | 0.02 | 0.01 | 51 | 1009.5 |
| 20260505213017 | 59 | 185 | 7.0 | 13.0 | 0.00 | 0.02 | 0.01 | 52 | 1009.7 |
| 20260505212511 | 59 | 185 | 5.2 | 14.8 | 0.00 | 0.02 | 0.01 | 52 | 1009.7 |
| 20260505212012 | 60 | 185 | 7.0 | 14.8 | 0.00 | 0.02 | 0.01 | 52 | 1009.8 |
| 20260505211513 | 59 | 185 | 6.1 | 14.8 | 0.00 | 0.02 | 0.01 | 53 | 1009.7 |
| 20260505211010 | 60 | 185 | 5.2 | 12.2 | 0.00 | 0.02 | 0.01 | 51 | 1009.6 |
| 20260505210511 | 60 | 185 | 7.8 | 12.2 | 0.00 | 0.02 | 0.01 | 52 | 1009.5 |
| 20260505210013 | 60 | 185 | 5.2 | 13.0 | 0.00 | 0.02 | 0.01 | 50 | 1009.5 |
| 20260505205516 | 61 | 185 | 5.2 | 16.5 | 0.00 | 0.02 | 0.01 | 51 | 1009.5 |
| 20260505205010 | 60 | 185 | 9.6 | 16.5 | 0.00 | 0.02 | 0.01 | 52 | 1009.7 |
| 20260505204512 | 60 | 185 | 12.2 | 15.6 | 0.00 | 0.02 | 0.01 | 52 | 1009.7 |
| 20260505204009 | 60 | 185 | 7.0 | 15.6 | 0.00 | 0.02 | 0.01 | 51 | 1009.7 |
| 20260505203509 | 60 | 185 | 7.8 | 15.6 | 0.00 | 0.02 | 0.01 | 52 | 1009.9 |
| 20260505203014 | 60 | 185 | 7.0 | 14.8 | 0.00 | 0.02 | 0.01 | 52 | 1009.7 |
| 20260505202509 | 61 | 185 | 4.3 | 16.5 | 0.00 | 0.02 | 0.01 | 53 | 1009.7 |
| 20260505202009 | 61 | 185 | 8.7 | 20.0 | 0.01 | 0.02 | 0.01 | 52 | 1009.7 |
| 20260505201513 | 61 | 185 | 8.7 | 20.0 | 0.01 | 0.02 | 0.01 | 53 | 1009.4 |
| 20260505201011 | 61 | 185 | 7.0 | 14.8 | 0.01 | 0.02 | 0.01 | 54 | 1009.5 |
| 20260505200508 | 60 | 185 | 7.0 | 14.8 | 0.01 | 0.02 | 0.01 | 56 | 1009.4 |
| 20260505200011 | 60 | 185 | 7.8 | 14.8 | 0.01 | 0.02 | 0.01 | 58 | 1009.5 |
| 20260505195510 | 59 | 185 | 6.1 | 14.8 | 0.01 | 0.03 | 0.01 | 62 | 1009.6 |
| 20260505195008 | 58 | 185 | 6.1 | 16.5 | 0.01 | 0.03 | 0.01 | 61 | 1009.7 |
| 20260505194508 | 58 | 185 | 7.0 | 16.5 | 0.01 | 0.03 | 0.01 | 67 | 1009.6 |
| 20260505194010 | 57 | 185 | 8.7 | 15.6 | 0.01 | 0.03 | 0.01 | 69 | 1009.7 |
| 20260505193508 | 56 | 185 | 7.8 | 13.0 | 0.01 | 0.03 | 0.01 | 73 | 1009.7 |
| 20260505193008 | 55 | 185 | 7.0 | 13.0 | 0.01 | 0.03 | 0.01 | 78 | 1009.8 |
| 20260505192509 | 54 | 185 | 6.1 | 20.0 | 0.01 | 0.03 | 0.01 | 77 | 1009.9 |
| 20260505192005 | 56 | 185 | 9.6 | 20.0 | 0.00 | 0.02 | 0.00 | 64 | 1009.8 |
| 20260505191509 | 60 | 185 | 8.7 | 15.6 | 0.00 | 0.02 | 0.00 | 46 | 1009.7 |
| 20260505191005 | 62 | 185 | 5.2 | 13.9 | 0.00 | 0.02 | 0.00 | 45 | 1009.5 |
| 20260505190505 | 62 | 185 | 6.1 | 10.4 | 0.00 | 0.02 | 0.00 | 45 | 1009.5 |
| 20260505190001 | 63 | 185 | 4.3 | 10.4 | 0.00 | 0.02 | 0.00 | 46 | 1009.5 |
| 20260505185602 | 61 | 185 | 2.6 | 10.4 | 0.00 | 0.02 | 0.00 | 49 | 1009.6 |
| 20260505185100 | 60 | 185 | 2.6 | 11.3 | 0.00 | 0.02 | 0.00 | 48 | 1009.8 |
| 20260505184559 | 60 | 185 | 5.2 | 9.6 | 0.00 | 0.02 | 0.00 | 48 | 1009.8 |
| 20260505184059 | 59 | 185 | 0.9 | 13.9 | 0.00 | 0.02 | 0.00 | 51 | 1009.9 |
| 20260505183600 | 59 | 185 | 9.6 | 13.9 | 0.00 | 0.02 | 0.00 | 50 | 1009.9 |
| 20260505183100 | 59 | 185 | 7.0 | 13.9 | 0.00 | 0.02 | 0.00 | 50 | 1009.8 |
| 20260505182557 | 59 | 185 | 6.1 | 15.6 | 0.00 | 0.02 | 0.00 | 50 | 1010.0 |
| 20260505182057 | 59 | 185 | 9.6 | 15.6 | 0.00 | 0.02 | 0.00 | 49 | 1010.1 |
| 20260505181556 | 60 | 185 | 10.4 | 14.8 | 0.00 | 0.02 | 0.00 | 48 | 1010.2 |
| 20260505181055 | 60 | 185 | 5.2 | 12.2 | 0.00 | 0.02 | 0.00 | 48 | 1010.2 |
| 20260505180555 | 60 | 185 | 3.5 | 10.4 | 0.00 | 0.02 | 0.00 | 48 | 1010.4 |
| 20260505180101 | 59 | 185 | 6.1 | 10.4 | 0.00 | 0.02 | 0.00 | 49 | 1010.2 |
| 20260505175554 | 59 | 185 | 5.2 | 8.7 | 0.00 | 0.02 | 0.00 | 47 | 1010.4 |
| 20260505175054 | 60 | 185 | 0.9 | 9.6 | 0.00 | 0.02 | 0.00 | 46 | 1010.4 |
| 20260505174555 | 60 | 185 | 0.9 | 9.6 | 0.00 | 0.02 | 0.00 | 47 | 1010.5 |
| 20260505174052 | 59 | 185 | 0.9 | 6.1 | 0.00 | 0.02 | 0.00 | 47 | 1010.7 |
| 20260505173554 | 58 | 185 | 0.0 | 8.7 | 0.00 | 0.02 | 0.00 | 49 | 1010.6 |
| 20260505173057 | 58 | 185 | 5.2 | 8.7 | 0.00 | 0.02 | 0.00 | 48 | 1010.7 |
| 20260505172552 | 58 | 185 | 2.6 | 9.6 | 0.00 | 0.02 | 0.00 | 48 | 1010.7 |
| 20260505172051 | 58 | 185 | 5.2 | 9.6 | 0.00 | 0.02 | 0.00 | 49 | 1010.9 |
| 20260505171551 | 57 | 185 | 2.6 | 7.8 | 0.00 | 0.02 | 0.00 | 50 | 1010.8 |
| 20260505171050 | 57 | 185 | 0.0 | 4.3 | 0.00 | 0.02 | 0.00 | 49 | 1010.8 |
| 20260505170550 | 56 | 185 | 0.0 | 5.2 | 0.00 | 0.02 | 0.00 | 51 | 1010.8 |
| 20260505170106 | 56 | 185 | 0.0 | 5.2 | 0.00 | 0.02 | 0.00 | 52 | 1010.9 |
| 20260505165550 | 55 | 185 | 1.7 | 4.3 | 0.00 | 0.02 | 0.00 | 52 | 1010.8 |
| 20260505165054 | 55 | 185 | 0.0 | 0.0 | 0.00 | 0.02 | 0.00 | 53 | 1010.9 |
| 20260505164553 | 54 | 185 | 0.0 | 4.3 | 0.00 | 0.02 | 0.00 | 53 | 1010.9 |
| 20260505164049 | 54 | 185 | 0.0 | 7.8 | 0.00 | 0.02 | 0.00 | 53 | 1011.1 |
| 20260505163548 | 54 | 185 | 3.5 | 7.8 | 0.00 | 0.02 | 0.00 | 53 | 1011.1 |
| 20260505163049 | 54 | 185 | 3.5 | 7.0 | 0.00 | 0.02 | 0.00 | 53 | 1011.1 |
| 20260505162549 | 54 | 185 | 2.6 | 6.1 | 0.00 | 0.02 | 0.00 | 53 | 1011.1 |
| 20260505162054 | 54 | 185 | 0.0 | 7.0 | 0.00 | 0.02 | 0.00 | 52 | 1011.0 |
| 20260505161552 | 54 | 185 | 0.9 | 8.7 | 0.00 | 0.02 | 0.00 | 52 | 1011.1 |
| 20260505161049 | 54 | 185 | 4.3 | 8.7 | 0.00 | 0.02 | 0.00 | 51 | 1011.1 |
| 20260505160548 | 54 | 185 | 1.7 | 10.4 | 0.00 | 0.02 | 0.00 | 52 | 1011.3 |
| 20260505153059 | 54 | 185 | 5.2 | 9.6 | 0.00 | 0.02 | 0.00 | 51 | 1011.2 |
| 20260505152548 | 54 | 185 | 6.1 | 9.6 | 0.00 | 0.02 | 0.00 | 52 | 1011.3 |
| 20260505152046 | 54 | 185 | 2.6 | 9.6 | 0.00 | 0.02 | 0.00 | 51 | 1011.4 |
| 20260505151558 | 54 | 185 | 4.3 | 7.0 | 0.00 | 0.02 | 0.00 | 51 | 1011.4 |
| 20260505151049 | 54 | 185 | 4.3 | 8.7 | 0.00 | 0.02 | 0.00 | 51 | 1011.3 |
| 20260505150545 | 53 | 185 | 3.5 | 9.6 | 0.00 | 0.02 | 0.00 | 51 | 1011.3 |
| 20260505140540 | 54 | 185 | 4.3 | 7.8 | 0.00 | 0.02 | 0.00 | 48 | 1011.4 |
| 20260505125036 | 51 | 185 | 3.5 | 6.1 | 0.00 | 0.02 | 0.00 | 48 | 1011.0 |
| 20260505124536 | 51 | 185 | 4.3 | 7.0 | 0.00 | 0.02 | 0.00 | 48 | 1011.0 |
| 20260505124035 | 51 | 185 | 4.3 | 7.0 | 0.00 | 0.02 | 0.00 | 48 | 1010.8 |
| 20260505123538 | 52 | 185 | 3.5 | 7.0 | 0.00 | 0.02 | 0.00 | 47 | 1011.1 |
| 20260505123034 | 52 | 185 | 2.6 | 6.1 | 0.00 | 0.02 | 0.00 | 46 | 1011.1 |
| 20260505122533 | 52 | 185 | 0.0 | 4.3 | 0.00 | 0.02 | 0.00 | 46 | 1011.1 |
| 20260505122032 | 53 | 185 | 0.0 | 4.3 | 0.00 | 0.02 | 0.00 | 45 | 1011.1 |
| 20260505121532 | 53 | 185 | 0.9 | 4.3 | 0.00 | 0.02 | 0.00 | 44 | 1011.1 |
| 20260505121031 | 53 | 185 | 0.0 | 4.3 | 0.00 | 0.02 | 0.00 | 44 | 1011.1 |
| 20260505120530 | 53 | 185 | 0.0 | 3.5 | 0.00 | 0.02 | 0.00 | 43 | 1010.9 |
| 20260505120030 | 53 | 185 | 0.0 | 3.5 | 0.00 | 0.02 | 0.00 | 43 | 1010.9 |
| 20260505115533 | 53 | 185 | 0.0 | 5.2 | 0.00 | 0.02 | 0.00 | 42 | 1010.9 |
| 20260505115030 | 53 | 185 | 0.0 | 7.0 | 0.00 | 0.02 | 0.00 | 42 | 1010.8 |
| 20260505114530 | 53 | 185 | 2.6 | 6.1 | 0.00 | 0.02 | 0.00 | 42 | 1010.8 |
| 20260505114029 | 53 | 185 | 1.7 | 6.1 | 0.00 | 0.02 | 0.00 | 41 | 1010.8 |
| 20260505113529 | 53 | 185 | 0.0 | 6.1 | 0.00 | 0.02 | 0.00 | 41 | 1010.9 |
| 20260505113029 | 53 | 185 | 1.7 | 6.1 | 0.00 | 0.02 | 0.00 | 41 | 1010.9 |
| 20260505112529 | 54 | 185 | 4.3 | 7.0 | 0.00 | 0.02 | 0.00 | 40 | 1010.9 |
| 20260505112028 | 54 | 185 | 4.3 | 7.0 | 0.00 | 0.02 | 0.00 | 40 | 1010.9 |
| 20260505111528 | 53 | 185 | 3.5 | 7.0 | 0.00 | 0.02 | 0.00 | 40 | 1011.0 |
| 20260505111026 | 53 | 185 | 3.5 | 6.1 | 0.00 | 0.02 | 0.00 | 41 | 1011.1 |
| 20260505110527 | 53 | 185 | 0.0 | 7.0 | 0.00 | 0.02 | 0.00 | 40 | 1011.2 |
| 20260505102024 | 53 | 185 | 0.0 | 0.0 | 0.00 | 0.02 | 0.00 | 41 | 1011.0 |
| 20260505101522 | 53 | 185 | 0.0 | 0.0 | 0.00 | 0.02 | 0.00 | 41 | 1011.0 |
| 20260505101022 | 54 | 185 | 0.0 | 0.0 | 0.00 | 0.02 | 0.00 | 40 | 1011.0 |
| 20260505100523 | 53 | 185 | 0.0 | 0.0 | 0.00 | 0.02 | 0.00 | 41 | 1011.1 |
| 20260505100022 | 54 | 185 | 0.0 | 0.0 | 0.00 | 0.02 | 0.00 | 41 | 1011.2 |
| 20260505095521 | 54 | 185 | 0.0 | 0.0 | 0.00 | 0.02 | 0.00 | 40 | 1011.1 |
| 20260505095020 | 54 | 185 | 0.0 | 2.6 | 0.00 | 0.02 | 0.00 | 40 | 1011.0 |
| 20260505094519 | 55 | 185 | 0.0 | 4.3 | 0.00 | 0.02 | 0.00 | 40 | 1011.0 |
| 20260505094018 | 55 | 185 | 1.7 | 6.1 | 0.00 | 0.02 | 0.00 | 39 | 1010.9 |
| 20260505093518 | 55 | 185 | 1.7 | 6.1 | 0.00 | 0.02 | 0.00 | 39 | 1011.1 |
| 20260505093027 | 55 | 185 | 0.0 | 4.3 | 0.00 | 0.02 | 0.00 | 40 | 1011.1 |
| 20260505092517 | 55 | 185 | 0.0 | 5.2 | 0.00 | 0.02 | 0.00 | 40 | 1011.2 |
| 20260505092016 | 55 | 185 | 0.9 | 5.2 | 0.00 | 0.02 | 0.00 | 39 | 1011.2 |
| 20260505091516 | 55 | 185 | 0.0 | 0.9 | 0.00 | 0.02 | 0.00 | 39 | 1011.3 |
| 20260505091015 | 56 | 185 | 0.0 | 0.0 | 0.00 | 0.02 | 0.00 | 39 | 1011.5 |
| 20260505090512 | 56 | 185 | 0.0 | 5.2 | 0.00 | 0.02 | 0.00 | 38 | 1011.7 |
| 20260505090014 | 56 | 185 | 3.5 | 6.1 | 0.00 | 0.02 | 0.00 | 38 | 1011.6 |
| 20260505085513 | 56 | 185 | 2.6 | 8.7 | 0.00 | 0.02 | 0.00 | 37 | 1011.6 |
| 20260505085013 | 57 | 185 | 6.1 | 11.3 | 0.00 | 0.02 | 0.00 | 37 | 1011.6 |
| 20260505084511 | 57 | 185 | 6.1 | 13.0 | 0.00 | 0.02 | 0.00 | 36 | 1011.8 |
| 20260505084009 | 57 | 185 | 7.8 | 13.0 | 0.00 | 0.02 | 0.00 | 37 | 1011.6 |
| 20260505083510 | 57 | 185 | 5.2 | 11.3 | 0.00 | 0.02 | 0.00 | 37 | 1011.4 |
| 20260505083009 | 57 | 185 | 3.5 | 8.7 | 0.00 | 0.02 | 0.00 | 37 | 1011.4 |
| 20260505082509 | 57 | 185 | 5.2 | 8.7 | 0.00 | 0.02 | 0.00 | 37 | 1011.3 |
| 20260505082008 | 56 | 185 | 0.0 | 5.2 | 0.00 | 0.02 | 0.00 | 37 | 1011.4 |
| 20260505081508 | 56 | 185 | 0.0 | 9.6 | 0.00 | 0.02 | 0.00 | 37 | 1011.6 |
| 20260505081008 | 56 | 185 | 5.2 | 9.6 | 0.00 | 0.02 | 0.00 | 36 | 1011.7 |
| 20260505080507 | 56 | 185 | 5.2 | 8.7 | 0.00 | 0.02 | 0.00 | 36 | 1011.9 |
| 20260505080005 | 57 | 185 | 4.3 | 8.7 | 0.00 | 0.02 | 0.00 | 36 | 1011.7 |
| 20260505075505 | 57 | 185 | 5.2 | 8.7 | 0.00 | 0.02 | 0.00 | 35 | 1011.8 |
| 20260505075004 | 57 | 185 | 0.9 | 6.1 | 0.00 | 0.02 | 0.00 | 35 | 1011.8 |
| 20260505074504 | 57 | 185 | 0.0 | 0.0 | 0.00 | 0.02 | 0.00 | 35 | 1011.8 |
| 20260505074003 | 57 | 185 | 0.0 | 6.1 | 0.00 | 0.02 | 0.00 | 35 | 1012.0 |
| 20260505073503 | 57 | 185 | 0.0 | 6.1 | 0.00 | 0.02 | 0.00 | 35 | 1012.0 |
| 20260505073003 | 57 | 185 | 0.0 | 4.3 | 0.00 | 0.02 | 0.00 | 35 | 1012.2 |
| 20260505072501 | 58 | 185 | 0.0 | 6.1 | 0.00 | 0.02 | 0.00 | 34 | 1012.2 |
| 20260505072001 | 58 | 185 | 0.0 | 7.0 | 0.00 | 0.02 | 0.00 | 34 | 1012.3 |
| 20260505071600 | 58 | 185 | 0.9 | 7.0 | 0.00 | 0.02 | 0.00 | 34 | 1012.3 |
| 20260505071059 | 58 | 185 | 2.6 | 6.1 | 0.00 | 0.02 | 0.00 | 33 | 1012.3 |
| 20260505070558 | 58 | 185 | 0.0 | 6.1 | 0.00 | 0.02 | 0.00 | 33 | 1012.2 |
| 20260505070058 | 59 | 185 | 0.9 | 6.1 | 0.00 | 0.02 | 0.00 | 33 | 1012.1 |
| 20260505065557 | 59 | 185 | 0.0 | 5.2 | 0.00 | 0.02 | 0.00 | 32 | 1011.8 |
| 20260505065056 | 59 | 185 | 0.0 | 8.7 | 0.00 | 0.02 | 0.00 | 32 | 1011.8 |
| 20260505064558 | 59 | 185 | 0.0 | 8.7 | 0.00 | 0.02 | 0.00 | 32 | 1011.7 |
| 20260505064056 | 59 | 185 | 0.0 | 13.0 | 0.00 | 0.02 | 0.00 | 31 | 1011.4 |
| 20260505063557 | 59 | 185 | 6.1 | 13.0 | 0.00 | 0.02 | 0.00 | 31 | 1011.5 |
| 20260505063055 | 59 | 185 | 8.7 | 13.9 | 0.00 | 0.02 | 0.00 | 32 | 1011.6 |
| 20260505062555 | 59 | 185 | 8.7 | 13.9 | 0.00 | 0.02 | 0.00 | 32 | 1011.7 |
| 20260505062054 | 59 | 185 | 7.0 | 19.1 | 0.00 | 0.02 | 0.00 | 32 | 1011.8 |
| 20260505061557 | 58 | 185 | 7.8 | 19.1 | 0.00 | 0.02 | 0.00 | 33 | 1011.7 |
| 20260505061052 | 58 | 185 | 7.0 | 13.0 | 0.00 | 0.02 | 0.00 | 32 | 1011.6 |
| 20260505060551 | 58 | 185 | 7.0 | 13.9 | 0.00 | 0.02 | 0.00 | 30 | 1011.7 |
| 20260505060050 | 59 | 185 | 9.6 | 17.4 | 0.00 | 0.02 | 0.00 | 30 | 1011.7 |
| 20260505055550 | 59 | 185 | 11.3 | 17.4 | 0.00 | 0.02 | 0.02 | 30 | 1011.8 |
| 20260505055050 | 59 | 185 | 9.6 | 13.0 | 0.00 | 0.02 | 0.02 | 30 | 1011.8 |
| 20260505054550 | 59 | 185 | 8.7 | 13.9 | 0.00 | 0.02 | 0.02 | 30 | 1011.8 |
| 20260505054049 | 59 | 185 | 7.8 | 13.9 | 0.00 | 0.02 | 0.02 | 29 | 1011.7 |
| 20260505053550 | 59 | 185 | 7.8 | 13.0 | 0.00 | 0.02 | 0.02 | 30 | 1011.8 |
| 20260505053057 | 60 | 185 | 8.7 | 15.6 | 0.00 | 0.02 | 0.02 | 29 | 1011.9 |
| 20260505052549 | 60 | 185 | 10.4 | 15.6 | 0.00 | 0.02 | 0.02 | 29 | 1011.9 |
| 20260505052049 | 59 | 185 | 6.1 | 13.0 | 0.00 | 0.02 | 0.02 | 30 | 1011.9 |
| 20260505051549 | 59 | 185 | 5.2 | 13.0 | 0.00 | 0.02 | 0.02 | 31 | 1012.0 |
| 20260505051050 | 56 | 185 | 1.7 | 5.2 | 0.00 | 0.02 | 0.02 | 33 | 1012.0 |
| 20260505050549 | 56 | 185 | 2.6 | 5.2 | 0.00 | 0.02 | 0.02 | 33 | 1012.0 |
| 20260505041548 | 58 | 185 | 0.9 | 3.5 | 0.00 | 0.02 | 0.02 | 31 | 1012.3 |
| 20260505041047 | 59 | 185 | 0.0 | 3.5 | 0.00 | 0.02 | 0.02 | 30 | 1012.3 |
| 20260505040549 | 59 | 185 | 0.0 | 2.6 | 0.00 | 0.02 | 0.02 | 30 | 1012.4 |
| 20260505040047 | 60 | 185 | 0.0 | 3.5 | 0.00 | 0.02 | 0.02 | 29 | 1012.3 |